Location: Lakeland Beach
(40.6642°N, 82.1054°W)
Time: 14:55:53
(UTC+00:00)

Daily predictions for brighter satellites

Satellite Brightness Start Highest point End
(mag) Time Altitude Azimuth Time Altitude Azimuth Time Altitude Azimuth
CZ-4B R/B 3.4 12:03:37 10° N 12:06:46 30° WNW 12:09:57 10° SW
ATLAS 5 CENTAUR R/B 2.8 12:04:35 10° W 12:07:25 19° NW 12:10:29 10° N
Cosmos 158 Rocket 4.3 12:03:32 10° NNW 12:08:32 51° WSW 12:13:38 10° S
Cosmos 923 Rocket 4.4 12:04:01 10° NNW 12:09:23 71° ENE 12:14:42 10° SSE
Cosmos 1340 Rocket 4.1 12:06:32 10° WSW 12:09:31 20° WNW 12:12:33 10° NNW
Cosmos 1697 Rocket 4.2 12:04:54 10° S 12:10:10 43° ESE 12:15:27 10° NE
Cosmos 2026 Rocket 4.0 22:23:21 10° N 22:29:22 56° E 22:35:17 10° SSE
Meteor 1-20 Rocket 4.4 22:24:59 10° N 22:30:52 89° W 22:36:42 10° S
ISS -3.4 22:27:35 10° NW 22:30:53 45° NNE 22:34:09 10° ESE
Cosmos 44 Rocket 4.4 22:27:48 10° N 22:31:39 22° NE 22:35:24 10° E
Cosmos 1898 Rocket 3.8 22:26:57 10° NNW 22:32:11 74° WSW 22:37:20 10° S
Cosmos 2195 Rocket 4.5 22:27:38 10° N 22:33:49 73° E 22:40:02 10° SSE
Cosmos 1812 3.3 22:31:19 10° SSE 22:34:51 36° E 22:38:24 10° NNE
Cosmos 1809 Rocket 4.4 22:28:51 10° N 22:34:56 70° E 22:40:58 10° SSE
Cosmos 1805 Rocket 3.5 22:30:59 10° N 22:35:19 74° E 22:39:38 10° SSE
NOAA 12 4.1 22:32:47 10° SSE 22:38:06 87° ENE 22:43:27 10° NNW
Cosmos 1818 4.3 22:40:39 10° NNW 22:45:31 31° NE 22:50:20 10° ESE
Cosmos 1933 4.2 22:42:05 10° SSW 22:46:02 54° W 22:50:00 10° N
Cosmos 1697 Rocket 3.4 22:42:15 10° NNW 22:47:46 60° WSW 22:53:16 10° S
Meteor 1-26 Rocket 4.4 22:42:52 10° S 22:48:51 89° E 22:54:57 10° N
Cosmos 2322 Rocket 3.6 22:45:43 10° N 22:49:20 17° NE 22:52:57 10° E
Cosmos 1980 Rocket 2.1 22:48:01 10° NNW 22:53:43 77° ENE 22:59:19 10° SSE
CZ-4B R/B 3.7 22:50:02 10° S 22:53:58 54° W 22:57:44 10° NNW
Cosmos 841 Rocket 4.1 22:50:44 10° SSW 22:55:48 58° WNW 23:00:54 10° NNE
CORIOLIS 4.1 22:51:38 10° SSE 22:57:01 75° ENE 23:02:27 10° N
Cosmos 1900 4.3 22:52:14 10° SSW 22:57:05 77° ESE 23:01:59 10° NNE
Cosmos 921 Rocket 3.6 22:53:19 10° SSE 22:57:07 35° E 23:00:53 11° NE
APEX 4.1 22:53:44 10° S 22:57:12 28° ESE 22:59:14 16° ENE
Cosmos 2208 Rocket 4.1 22:55:05 10° S 23:00:23 64° ESE 23:05:47 10° NNE
Tiangong 3.5 23:01:25 10° S 23:02:44 12° SE 23:04:03 10° ESE
COSMOS 2455 3.7 22:57:05 10° SW 23:02:53 49° NW 23:08:45 10° NNE
Cosmos 2369 4.1 22:57:52 10° NNW 23:03:35 70° WSW 23:09:14 10° SSE
USA 267 3.6 22:57:13 10° NE 23:03:40 63° NW 23:10:05 10° WSW
DEBRIS 3.9 23:02:50 10° S 23:04:41 20° ESE 23:05:58 16° E
Cosmos 372 Rocket 4.2 23:02:35 10° NNW 23:07:50 79° WSW 23:13:04 10° SSE
Cosmos 2082 Rocket 2.9 23:03:40 10° SW 23:09:14 54° WNW 23:14:47 10° NNE
SL-16 R/B 2.9 23:04:50 10° N 23:09:47 30° ENE 23:14:42 10° ESE
H-2A R/B 2.0 23:05:19 10° SSE 23:10:22 59° ENE 23:15:19 10° N
ARGOS 3.6 23:07:41 10° SE 23:12:37 38° ENE 23:17:34 10° N
Meteor 1-5 Rocket 4.3 23:07:22 10° N 23:13:20 71° E 23:19:08 10° SSE
Cosmos 1500 4.0 23:10:19 10° NNW 23:13:57 52° W 23:17:34 10° S
COSMO-SKYMED 1 2.9 23:10:02 10° NNE 23:14:13 44° E 23:18:20 10° S
Cosmos 1151 Rocket 3.1 23:10:09 10° S 23:14:27 83° W 23:18:51 10° N
Cosmos 1125 Rocket 4.1 23:10:32 10° N 23:15:18 34° ENE 23:20:04 10° SE
Cosmos 1633 Rocket 2.9 23:11:39 10° N 23:16:02 70° E 23:20:24 10° SSE
Meteor 2-16 Rocket 4.4 23:14:36 10° N 23:20:45 84° E 23:26:53 10° S
Cosmos 1939 Rocket 4.4 23:18:06 10° SSW 23:21:58 40° W 23:25:49 10° NNW
X-37B 0.4 23:19:27 10° SW 23:22:17 62° SSE 23:23:02 41° E
SL-08 RB Rocket 4.4 23:20:10 10° SE 23:24:12 30° ENE 23:28:13 10° N
CZ-4B DEB 4.4 23:19:12 10° S 23:24:42 75° WSW 23:30:12 10° NNW
Landsat 5 3.9 23:23:02 25° NE 23:24:46 37° E 23:28:24 10° SSE
CZ-2D R/B 3.3 23:22:04 10° S 23:25:53 82° WSW 23:29:43 10° NNW
Cosmos 2278 3.8 23:20:39 10° NNW 23:26:23 81° WSW 23:32:02 10° SSE
USA 306 4.3 23:23:56 10° NNW 23:27:15 22° NNE 23:27:42 21° NNE
Cosmos 2333 Rocket 4.2 23:25:17 10° NNE 23:25:39 11° NNE 23:25:39 11° NNE
USA 234 3.2 23:28:52 10° ESE 23:35:22 70° NE 23:41:52 10° NW
Meteor 2-15 Rocket 4.4 23:30:11 10° S 23:36:10 60° E 23:42:11 10° NNE
CZ-2C R/B 2.4 23:31:36 10° NNE 23:36:48 80° ESE 23:41:58 10° S
SKYMED 3 4.4 23:34:11 11° NNE 23:38:23 84° ESE 23:42:42 10° SSW
NOSS 3-3 (A) 4.2 23:36:31 10° S 23:41:41 41° ESE 23:43:32 32° ENE
NOSS 3-3 (C) 4.2 23:36:38 10° S 23:41:47 41° ESE 23:43:37 32° ENE
Cosmos 1328 Rocket 4.2 23:37:51 10° SSW 23:42:13 58° W 23:46:36 10° N
Cosmos 1933 Rocket 3.7 23:38:15 10° N 23:42:28 46° E 23:46:37 10° SSE
Cosmos 1666 3.9 23:39:15 10° NNW 23:42:48 42° W 23:46:18 10° SSW
Okean O Rocket 1.5 23:42:12 10° SSE 23:46:38 74° ENE 23:51:06 10° N
USA 307 4.2 23:44:05 10° NNW 23:47:06 24° NNE 23:47:06 24° NNE
Cosmos 1470 Rocket 3.5 23:43:57 10° N 23:48:27 89° W 23:52:56 10° S
CZ-4B R/B 3.2 23:46:29 10° SSE 23:51:54 81° WSW 23:57:16 10° NNW
CZ-4C R/B 3.9 23:54:59 36° SSE 23:54:59 36° SSE 23:57:10 10° S
ATLAS 5 CENTAUR R/B 3.1 23:51:32 10° NNW 23:54:52 27° N 23:54:52 27° N
